CQ0XPG-11 Weather Reports


Display with metric or nautical units.
time (UTC)temp
F
wind
direction
speed
MPH
gust
MPH
rain 1hr
in
rain 24hr
in
rain mn
in
humidity
%
barometer
mb
20260508100239 59 225 1.0 6.0 0.00 0.00 0.00 72 1001.1
20260508095752 59 337 3.0 6.0 0.00 0.00 0.00 79 1000.9
20260508093752 57 337 5.0 6.0 0.00 0.00 0.00 92 1001.1
20260508093220 57 337 3.0 6.0 0.00 0.00 0.00 97 1001.2
20260508092236 57 337 1.0 8.0 0.00 0.00 0.00 100 1001.2
20260508091752 56 225 3.0 6.0 0.00 0.00 0.00 100 1001.2
20260508091201 56 337 4.0 18.0 0.00 0.00 0.00 100 1001.2
20260508090745 55 337 6.0 8.0 0.00 0.00 0.00 100 1001.2
20260508090200 55 337 3.0 7.0 0.00 0.00 0.00 100 1001.2
20260508085705 55 337 1.0 2.0 0.00 0.00 0.00 100 1001.3
20260508085221 55 337 1.0 2.0 0.00 0.00 0.00 100 1001.3
20260508084714 54 337 1.0 3.0 0.00 0.00 0.00 100 1001.2
20260508084147 55 225 0.0 2.0 0.00 0.00 0.00 100 1001.3
20260508083657 54 225 0.0 3.0 0.00 0.00 0.00 100 1001.2
20260508083141 54 225 1.0 2.0 0.00 0.00 0.00 100 1001.2
20260508082710 54 337 0.0 3.0 0.00 0.00 0.00 100 1001.1
20260508001211 48 225 0.0 3.0 0.00 0.00 0.00 100 1000.1
20260508000630 48 225 1.0 2.0 0.00 0.00 0.00 100 1000.2
20260508000121 48 225 1.0 2.0 0.00 0.00 0.00 100 1000.3
20260507235116 48 225 1.0 2.0 0.00 0.00 0.00 100 1000.3
20260507234608 48 225 1.0 2.0 0.00 0.00 0.00 100 1000.3
20260507233610 48 225 0.0 2.0 0.00 0.00 0.00 100 1000.5
20260507233102 49 225 1.0 2.0 0.00 0.00 0.00 100 1000.6
20260507232630 49 225 3.0 3.0 0.00 0.00 0.00 100 1000.6
20260507232106 49 225 2.0 2.0 0.00 0.00 0.00 100 1000.5
20260507231549 49 225 0.0 2.0 0.00 0.00 0.00 100 1000.7
20260507230536 50 225 1.0 1.0 0.00 0.00 0.00 100 1000.7
20260507230101 50 225 0.0 1.0 0.00 0.00 0.00 100 1000.8
20260507225042 49 225 1.0 2.0 0.00 0.00 0.01 100 1001.0
20260507224530 49 225 2.0 2.0 0.00 0.00 0.01 100 1001.0
20260507224059 49 225 2.0 2.0 0.00 0.00 0.01 100 1001.1
20260507223517 50 225 1.0 2.0 0.00 0.00 0.01 100 1001.1
20260507223024 50 225 0.0 2.0 0.00 0.00 0.01 100 1001.1
20260507222532 50 225 1.0 2.0 0.00 0.00 0.01 100 1001.1
20260507222022 50 225 1.0 1.0 0.00 0.00 0.01 100 1001.1
20260507221523 50 225 0.0 0.0 0.00 0.00 0.01 100 1001.3
20260507221036 50 225 0.0 1.0 0.00 0.00 0.01 100 1001.3
20260507220512 50 225 0.0 2.0 0.00 0.00 0.01 100 1001.4
20260507220009 50 225 1.0 2.0 0.00 0.00 0.01 100 1001.4
20260507215001 50 225 1.0 4.0 0.00 0.00 0.01 100 1001.3
20260507214445 50 225 1.0 2.0 0.00 0.00 0.01 100 1001.3
20260507214005 50 225 1.0 2.0 0.00 0.00 0.01 100 1001.3
20260507213459 50 225 0.0 1.0 0.00 0.00 0.01 100 1001.5
20260507212952 50 225 0.0 2.0 0.00 0.00 0.01 100 1001.5
20260507212445 50 225 1.0 2.0 0.00 0.00 0.01 100 1001.5
20260507211939 50 225 1.0 3.0 0.00 0.00 0.00 100 1001.5
20260507211426 51 225 2.0 2.0 0.00 0.00 0.00 100 1001.4
20260507211009 51 225 2.0 2.0 0.00 0.00 0.00 100 1001.4
20260507210421 51 337 0.0 1.0 0.00 0.00 0.00 100 1001.4
20260507205948 51 337 1.0 2.0 0.00 0.00 0.00 100 1001.5
20260507205415 51 225 0.0 2.0 0.00 0.00 0.00 100 1001.4
20260507204952 52 337 2.0 2.0 0.00 0.00 0.00 100 1001.4
20260507204409 52 337 1.0 1.0 0.00 0.00 0.00 100 1001.2
20260507203929 52 225 0.0 3.0 0.00 0.00 0.00 100 1001.2
20260507203401 53 225 0.0 2.0 0.00 0.00 0.00 100 1001.2
20260507202918 53 225 0.0 1.0 0.00 0.00 0.00 100 1001.1
20260507202400 54 337 1.0 1.0 0.00 0.00 0.00 100 1001.0
20260507201907 54 225 1.0 1.0 0.00 0.00 0.00 100 1001.1
20260507201350 55 337 0.0 0.0 0.00 0.00 0.00 100 1000.9
20260507200924 55 337 0.0 0.0 0.00 0.00 0.00 100 1000.9
20260507200401 55 225 0.0 1.0 0.00 0.00 0.00 100 1000.7
20260507195859 56 225 0.0 1.0 0.00 0.00 0.00 100 1000.7
20260507195347 56 225 1.0 3.0 0.00 0.00 0.00 100 1000.7
20260507194343 56 225 3.0 4.0 0.00 0.00 0.00 100 1000.6
20260507193842 56 225 1.0 4.0 0.00 0.00 0.00 100 1000.6
20260507193329 56 225 2.0 3.0 0.00 0.00 0.00 100 1000.5
20260507192857 56 225 1.0 5.0 0.00 0.00 0.00 100 1000.5
20260507192321 57 225 1.0 5.0 0.00 0.00 0.00 100 1000.5
20260507191833 57 225 3.0 5.0 0.00 0.00 0.00 100 1000.4
20260507191315 57 337 2.0 6.0 0.00 0.00 0.00 99 1000.5
20260507190845 57 225 2.0 6.0 0.00 0.00 0.00 98 1000.5
20260507190308 57 337 6.0 6.0 0.00 0.00 0.00 96 1000.5
20260507185832 57 337 1.0 4.0 0.00 0.00 0.00 94 1000.5
20260507185255 58 337 3.0 7.0 0.00 0.00 0.00 93 1000.4
20260507184826 58 225 0.0 3.0 0.00 0.00 0.00 91 1000.4
20260507184302 58 225 2.0 4.0 0.00 0.00 0.00 90 1000.3
20260507183822 58 225 0.0 10.0 0.00 0.00 0.00 89 1000.2
20260507183244 58 337 3.0 7.0 0.00 0.00 0.00 87 1000.1
20260507182239 58 225 4.0 12.0 0.00 0.00 0.00 84 999.9
20260507181759 59 225 4.0 10.0 0.00 0.00 0.00 82 999.9
20260507181236 59 225 5.0 9.0 0.00 0.00 0.00 80 999.8
20260507180746 59 225 4.0 9.0 0.00 0.00 0.00 79 999.7
20260507180225 60 225 4.0 12.0 0.00 0.00 0.00 77 999.8
20260507175746 60 225 6.0 9.0 0.00 0.00 0.00 77 999.6
20260507175230 60 225 4.0 8.0 0.00 0.00 0.00 76 999.6
20260507174735 60 225 2.0 8.0 0.00 0.00 0.00 76 999.6
20260507174224 60 225 4.0 6.0 0.00 0.00 0.00 75 999.5
20260507173724 61 225 4.0 7.0 0.00 0.00 0.00 74 999.5
20260507173233 61 225 3.0 8.0 0.00 0.00 0.00 72 999.5
20260507172719 62 225 5.0 8.0 0.00 0.00 0.00 69 999.3
20260507172205 62 225 3.0 9.0 0.00 0.00 0.00 68 999.3
20260507171207 63 225 1.0 6.0 0.00 0.00 0.00 64 999.2
20260507170707 63 225 2.0 5.0 0.00 0.00 0.00 62 999.2
20260507170152 64 225 5.0 6.0 0.00 0.00 0.00 62 999.2
20260507165658 64 225 3.0 7.0 0.00 0.00 0.00 60 999.2
20260507165145 65 225 3.0 7.0 0.00 0.00 0.00 59 999.1
20260507164701 65 225 4.0 9.0 0.00 0.00 0.00 56 999.0
20260507164139 66 225 3.0 6.0 0.00 0.00 0.00 56 999.0
20260507163659 66 225 3.0 5.0 0.00 0.00 0.00 55 998.9
20260507163130 66 225 1.0 7.0 0.00 0.00 0.00 54 998.9
20260507162639 65 225 3.0 9.0 0.00 0.00 0.00 53 998.9
20260507162120 66 225 5.0 6.0 0.00 0.00 0.00 51 998.9
20260507161633 66 225 2.0 5.0 0.00 0.00 0.00 52 998.9
20260507161119 66 225 1.0 3.0 0.00 0.00 0.00 49 998.9
20260507160626 67 225 0.0 4.0 0.00 0.00 0.00 47 998.9
20260507160118 67 225 0.0 5.0 0.00 0.00 0.00 47 999.0
20260507155619 67 225 4.0 5.0 0.00 0.00 0.00 47 998.9
20260507155102 66 225 0.0 4.0 0.00 0.00 0.00 47 999.0
20260507154614 66 225 5.0 5.0 0.00 0.00 0.00 47 999.1
20260507154054 67 225 3.0 4.0 0.00 0.00 0.00 45 999.0
20260507153607 67 225 3.0 4.0 0.00 0.00 0.00 44 999.1
20260507153103 67 225 1.0 4.0 0.00 0.00 0.00 44 999.1
20260507152558 67 225 2.0 6.0 0.00 0.00 0.00 46 999.2
20260507152058 66 225 1.0 4.0 0.00 0.00 0.00 46 999.2
20260507151554 66 225 1.0 6.0 0.00 0.00 0.00 46 999.3
20260507151041 67 225 3.0 8.0 0.00 0.00 0.00 45 999.2
20260507150548 67 225 3.0 8.0 0.00 0.00 0.00 45 999.3
20260507150053 67 225 1.0 3.0 0.00 0.00 0.00 46 999.3
20260507145541 67 225 2.0 4.0 0.00 0.00 0.00 45 999.5
20260507145022 67 225 4.0 5.0 0.00 0.00 0.00 45 999.6
20260507144536 68 225 2.0 8.0 0.00 0.00 0.00 41 999.5
20260507144016 68 225 6.0 6.0 0.00 0.00 0.00 42 999.5
20260507143531 67 225 5.0 5.0 0.00 0.00 0.00 45 999.6
20260507143034 67 225 5.0 7.0 0.00 0.00 0.00 46 999.6
20260507142515 66 225 1.0 5.0 0.00 0.00 0.00 48 999.7
20260507142010 66 225 2.0 4.0 0.00 0.00 0.00 47 999.8
20260507141516 66 225 1.0 6.0 0.00 0.00 0.00 47 999.8
20260507141003 66 225 6.0 6.0 0.00 0.00 0.00 46 999.9
20260507140508 66 225 1.0 3.0 0.00 0.00 0.00 45 999.9
20260507140012 67 225 3.0 5.0 0.00 0.00 0.00 44 999.9
20260507135505 67 225 5.0 6.0 0.00 0.00 0.00 43 1000.0
20260507134943 68 225 2.0 6.0 0.00 0.00 0.00 42 1000.0
20260507134459 68 225 4.0 4.0 0.00 0.00 0.00 42 1000.0
20260507133937 67 225 4.0 5.0 0.00 0.00 0.00 44 1000.0
20260507133451 67 225 2.0 5.0 0.00 0.00 0.00 44 1000.0
20260507133006 68 225 1.0 7.0 0.00 0.00 0.00 43 1000.1
20260507131946 68 225 3.0 9.0 0.00 0.00 0.00 41 1000.0
20260507131448 68 225 1.0 5.0 0.00 0.00 0.00 42 1000.1
20260507130931 67 225 2.0 5.0 0.00 0.00 0.00 43 1000.1
20260507130432 67 225 2.0 4.0 0.00 0.00 0.00 45 1000.2
20260507125947 66 225 4.0 4.0 0.00 0.00 0.00 44 1000.1
20260507125427 67 337 2.0 4.0 0.00 0.00 0.00 43 1000.3
20260507124919 67 225 2.0 6.0 0.00 0.00 0.00 46 1000.3
20260507124432 66 225 1.0 3.0 0.00 0.00 0.00 48 1000.3
20260507123914 65 225 1.0 8.0 0.00 0.00 0.00 47 1000.6
20260507123412 65 337 2.0 5.0 0.00 0.00 0.00 49 1000.5
20260507122921 65 337 4.0 4.0 0.00 0.00 0.00 49 1000.6
20260507122406 65 337 3.0 5.0 0.00 0.00 0.00 48 1000.7
20260507120841 67 337 1.0 5.0 0.00 0.00 0.00 47 1000.8
20260507120355 66 337 1.0 3.0 0.00 0.00 0.00 45 1000.9
20260507115348 65 337 0.0 4.0 0.00 0.00 0.00 51 1001.1
20260507114832 65 337 3.0 4.0 0.00 0.00 0.00 54 1001.1
20260507113844 65 225 3.0 6.0 0.00 0.00 0.00 53 1001.2
20260507113332 65 337 2.0 5.0 0.00 0.00 0.00 54 1001.1
20260507112833 65 225 1.0 4.0 0.00 0.00 0.00 55 1001.0
20260507112325 65 337 0.0 5.0 0.00 0.00 0.00 55 1001.1
20260507111842 65 225 1.0 5.0 0.00 0.00 0.00 55 1001.1
20260507111331 64 225 1.0 4.0 0.00 0.00 0.00 60 1001.1
20260507110312 64 225 0.0 5.0 0.00 0.00 0.00 64 1001.1
20260507105819 64 225 3.0 3.0 0.00 0.00 0.00 67 1001.1
20260507105302 64 225 1.0 4.0 0.00 0.00 0.00 66 1001.2
20260507104752 64 225 0.0 2.0 0.00 0.00 0.00 65 1001.2
20260507104311 64 225 2.0 5.0 0.00 0.00 0.00 65 1001.3
20260507103802 65 225 4.0 4.0 0.00 0.00 0.00 63 1001.1
20260507103250 64 225 0.0 4.0 0.00 0.00 0.00 65 1001.2
20260507102757 63 225 2.0 3.0 0.00 0.00 0.00 73 1001.2
20260507102249 62 225 0.0 4.0 0.00 0.00 0.00 71 1001.2
20260507101744 62 225 0.0 3.0 0.00 0.00 0.00 75 1001.2
20260507101258 62 225 1.0 4.0 0.00 0.00 0.00 75 1001.2